Tracking 27188 objects as of 2-Apr-2023
HD Live streaming from Space Station
objects crossing your sky now

OPS 9321 (IDSCS 8)

Track OPS 9321 (IDSCS 8) now!
OPS 9321 (IDSCS 8) is classified as:


NORAD ID: 2645
Int'l Code: 1967-003A
Perigee: 33,534.7 km
Apogee: 33,823.3 km
Inclination: 6.2 °
Period: 1,329.4 minutes
Semi major axis: 40050 km
RCS: 0.3981 m2 (medium)
Launch date: January 18, 1967
Source: United States (US)
Launch site: AIR FORCE EASTERN TEST RANGE (AFETR)
Your satellite tracking list
Your tracking list is empty




NASA's NSSDC Master Catalog

Two Line Element Set (TLE):
1 02645U 67003A   23090.87929451 -.00000117  00000-0  00000-0 0  9992
2 02645   6.1509  53.8717 0036026  83.6632  64.0006  1.08317538221744
Source of the keplerian elements: AFSPC